Regional Weather Roundup
Issued by NWS Goodland, KS

Home | Current Version | Previous Version | Graphics & Text | Print | Product List | Glossary On
Versions: 1 2 3 4 5 6 7 8 9 10 11 12 13 14 15 16 17 18 19 20 21 22 23 24 25 26 27 28 29 30 31 32 33 34 35 36 37 38 39 40 41 42 43 44 45 46 47 48 49 50
000
ASUS43 KGLD 190208
RWRGLD

GOODLAND FORECAST AREA HOURLY WEATHER ROUNDUP
NATIONAL WEATHER SERVICE GOODLAND KS
800 PM MDT FRI AUG 18 2017

...OFFICIAL OBSERVATIONS...

CITY           SKY/WX    TMP DP  RH WIND       PRES   REMARKS
GOODLAND KS    CLEAR     68  58  70 SE9       30.08R
HILL CITY KS   CLEAR     73  62  68 CALM      30.00R
IMPERIAL NEB   CLEAR     72  56  57 SE6       30.04S
MCCOOK NEB     CLEAR     75  56  51 S5        30.00S
AKRON CO       CLEAR     72  48  42 SE12      30.11S
BURLINGTON CO  CLEAR     68  58  70 SE7       30.11S
LIMON CO       CLEAR     68  53  58 SE7       30.17R
$$

...UNOFFICIAL OBSERVATIONS...

CITY           SKY/WX    TMP DP  RH WIND       PRES   REMARKS
LENORA KS        N/A     76  32  20 CALM        N/A
NORTON KS      CLEAR     72  59  64 CALM      30.00R
SHARON SPRINGS   N/A     73  60  64 E7          N/A
TRENTON NEB      N/A     76  32  20 CALM        N/A
KIT CARSON CO    N/A     71  55  56 CALM        N/A
YUMA CO        FAIR      66  46  48 SE7       30.09S
$$




USA.gov is the U.S. government's official web portal to all federal, state and local government web resources and services.